Location: Risskov
(56.1972°N, 10.2480°E)
Time: 13:15:13
(UTC+00:00)

Cosmos 1624 Rocket - Pass Details

Date: 05 July 2020
Orbit: 758 x 783 km, 74.0° (Epoch: 07 August)

Event Time Altitude Azimuth Distance (km) Brightness Sun altitude
Rises 22:04:37 0° 330° (NNW) 3,255 9.2 -9.4°
Reaches altitude 10° 22:07:00 10° 329° (NNW) 2,320 8.0 -9.5°
Maximum altitude 22:12:15 74° 246° (WSW) 800 4.1 -9.7°
Enters shadow 22:16:55 13° 162° (SSE) 2,093 5.6 -9.9°
